• In Deutschland
  • Länderverzeichnis
  • Für 7 Tage
  • Wassertemperatur
  • Satellitenkarten
  • Wetterkarte
  • Widgets
  • user-avatar
    Anmelden

    Stündliche Wetter Myshutyne

    Heute, 23 Juni, Samstag

    Zeit Temperatur Niederschläge Wind Luftdruck Luftfeuchtigkeit
    00:00 +19°C° 0,8 mm 3 m/S 739 mmHg 91%
    01:00 +19°C° 0,8 mm 3 m/S 739 mmHg 91%
    02:00 +18°C° 0 mm 3 m/S 739 mmHg 92%
    03:00 +18°C° 0 mm 3 m/S 738 mmHg 92%
    04:00 +19°C° 0 mm 3 m/S 738 mmHg 91%
    05:00 +19°C° 0 mm 3 m/S 738 mmHg 90%
    06:00 +19°C° 0,5 mm 3 m/S 738 mmHg 89%
    07:00 +20°C° 0,5 mm 2 m/S 738 mmHg 87%
    08:00 +21°C° 0,5 mm 2 m/S 738 mmHg 86%
    09:00 +23°C° 0,1 mm 2 m/S 738 mmHg 83%
    10:00 +24°C° 0,1 mm 2 m/S 738 mmHg 79%
    11:00 +25°C° 0,1 mm 2 m/S 738 mmHg 76%
    12:00 +25°C° 1 mm 2 m/S 737 mmHg 78%
    13:00 +25°C° 1 mm 2 m/S 737 mmHg 79%
    14:00 +25°C° 1 mm 2 m/S 737 mmHg 81%
    15:00 +24°C° 2,6 mm 2 m/S 737 mmHg 86%
    16:00 +21°C° 2,6 mm 2 m/S 737 mmHg 90%
    17:00 +20°C° 2,6 mm 2 m/S 736 mmHg 94%
    18:00 +20°C° 2,5 mm 2 m/S 736 mmHg 95%
    19:00 +19°C° 2,5 mm 2 m/S 736 mmHg 96%
    20:00 +19°C° 2,5 mm 2 m/S 736 mmHg 97%
    21:00 +18°C° 0,9 mm 2 m/S 736 mmHg 97%
    22:00 +18°C° 0,9 mm 2 m/S 736 mmHg 97%
    23:00 +17°C° 0,9 mm 3 m/S 737 mmHg 97%

    Morgen, 24 Juni, Sonntag

    Zeit Temperatur Niederschläge Wind Luftdruck Luftfeuchtigkeit
    00:00 +17°C° 0,1 mm 3 m/S 737 mmHg 97%
    01:00 +15°C° 0,1 mm 4 m/S 737 mmHg 96%
    02:00 +14°C° 0,1 mm 5 m/S 738 mmHg 96%
    03:00 +13°C° 0,1 mm 5 m/S 738 mmHg 95%
    04:00 +12°C° 0,1 mm 5 m/S 738 mmHg 95%
    05:00 +12°C° 0,1 mm 5 m/S 738 mmHg 94%
    06:00 +12°C° 0 mm 5 m/S 739 mmHg 91%
    07:00 +13°C° 0 mm 5 m/S 739 mmHg 88%
    08:00 +13°C° 0 mm 4 m/S 740 mmHg 85%
    09:00 +14°C° 0 mm 5 m/S 740 mmHg 81%
    10:00 +16°C° 0 mm 5 m/S 741 mmHg 76%
    11:00 +17°C° 0 mm 5 m/S 741 mmHg 71%
    12:00 +17°C° 0 mm 5 m/S 741 mmHg 70%
    13:00 +19°C° 0 mm 4 m/S 741 mmHg 68%
    14:00 +20°C° 0 mm 4 m/S 741 mmHg 67%
    15:00 +20°C° 0 mm 4 m/S 742 mmHg 68%
    16:00 +19°C° 0 mm 4 m/S 742 mmHg 69%
    17:00 +19°C° 0 mm 3 m/S 742 mmHg 69%
    18:00 +18°C° 0 mm 3 m/S 742 mmHg 74%
    19:00 +17°C° 0 mm 2 m/S 742 mmHg 79%
    20:00 +15°C° 0 mm 2 m/S 742 mmHg 83%
    21:00 +14°C° 0 mm 2 m/S 743 mmHg 85%
    22:00 +14°C° 0 mm 2 m/S 743 mmHg 88%
    23:00 +13°C° 0 mm 2 m/S 743 mmHg 90%

    übermorgen, 25 Juni, Montag

    Zeit Temperatur Niederschläge Wind Luftdruck Luftfeuchtigkeit
    00:00 +13°C° 0 mm 2 m/S 743 mmHg 90%
    01:00 +12°C° 0 mm 2 m/S 744 mmHg 91%
    02:00 +12°C° 0 mm 2 m/S 744 mmHg 92%
    03:00 +12°C° 0 mm 1 m/S 744 mmHg 91%
    04:00 +12°C° 0 mm 1 m/S 744 mmHg 91%
    05:00 +13°C° 0 mm 1 m/S 744 mmHg 91%
    06:00 +14°C° 0 mm 1 m/S 745 mmHg 85%
    07:00 +16°C° 0 mm 1 m/S 745 mmHg 80%
    08:00 +19°C° 0 mm 1 m/S 745 mmHg 74%
    09:00 +19°C° 0,1 mm 2 m/S 746 mmHg 70%
    10:00 +20°C° 0,1 mm 2 m/S 746 mmHg 66%
    11:00 +21°C° 0,1 mm 3 m/S 746 mmHg 62%
    12:00 +21°C° 0 mm 3 m/S 746 mmHg 61%
    13:00 +21°C° 0 mm 3 m/S 746 mmHg 60%
    14:00 +22°C° 0 mm 3 m/S 746 mmHg 59%
    15:00 +22°C° 0 mm 3 m/S 746 mmHg 61%
    16:00 +21°C° 0 mm 2 m/S 746 mmHg 62%
    17:00 +21°C° 0 mm 2 m/S 746 mmHg 64%
    18:00 +20°C° 0 mm 2 m/S 746 mmHg 69%
    19:00 +18°C° 0 mm 2 m/S 747 mmHg 74%
    20:00 +16°C° 0 mm 1 m/S 747 mmHg 79%
    21:00 +16°C° 0 mm 1 m/S 747 mmHg 81%
    22:00 +15°C° 0 mm 1 m/S 747 mmHg 83%
    23:00 +13°C° 0 mm 0 m/S 747 mmHg 84%

    26 Juni, Dienstag

    Zeit Temperatur Niederschläge Wind Luftdruck Luftfeuchtigkeit
    00:00 +13°C° 0 mm 0 m/S 747 mmHg 85%
    01:00 +13°C° 0 mm 0 m/S 747 mmHg 85%
    02:00 +12°C° 0 mm 0 m/S 747 mmHg 85%
    03:00 +13°C° 0 mm 0 m/S 747 mmHg 85%
    04:00 +13°C° 0 mm 0 m/S 747 mmHg 85%
    05:00 +14°C° 0 mm 0 m/S 747 mmHg 84%
    06:00 +15°C° 0 mm 0 m/S 748 mmHg 79%
    07:00 +19°C° 0 mm 1 m/S 748 mmHg 74%
    08:00 +21°C° 0 mm 1 m/S 748 mmHg 70%
    09:00 +22°C° 0 mm 1 m/S 748 mmHg 66%
    10:00 +23°C° 0 mm 1 m/S 748 mmHg 62%
    11:00 +24°C° 0 mm 2 m/S 748 mmHg 58%
    12:00 +24°C° 0 mm 2 m/S 748 mmHg 58%
    13:00 +24°C° 0 mm 2 m/S 748 mmHg 57%
    14:00 +25°C° 0 mm 2 m/S 747 mmHg 57%
    15:00 +25°C° 0 mm 2 m/S 747 mmHg 60%
    16:00 +24°C° 0 mm 2 m/S 747 mmHg 62%
    17:00 +24°C° 0 mm 2 m/S 747 mmHg 65%
    18:00 +23°C° 0 mm 2 m/S 747 mmHg 69%
    19:00 +20°C° 0 mm 2 m/S 747 mmHg 74%
    20:00 +19°C° 0 mm 2 m/S 747 mmHg 78%
    21:00 +18°C° 0 mm 2 m/S 747 mmHg 80%
    22:00 +17°C° 0 mm 2 m/S 747 mmHg 82%
    23:00 +16°C° 0 mm 2 m/S 747 mmHg 84%

    27 Juni, Mittwoch

    Zeit Temperatur Niederschläge Wind Luftdruck Luftfeuchtigkeit
    00:00 +16°C° 0 mm 2 m/S 747 mmHg 86%
    01:00 +16°C° 0 mm 3 m/S 746 mmHg 87%
    02:00 +14°C° 0 mm 3 m/S 746 mmHg 88%
    03:00 +14°C° 0 mm 3 m/S 746 mmHg 88%
    04:00 +16°C° 0 mm 3 m/S 746 mmHg 88%
    05:00 +16°C° 0 mm 3 m/S 746 mmHg 88%
    06:00 +17°C° 0 mm 3 m/S 746 mmHg 85%
    07:00 +19°C° 0 mm 4 m/S 746 mmHg 82%
    08:00 +20°C° 0 mm 4 m/S 746 mmHg 79%
    09:00 +21°C° 0 mm 5 m/S 746 mmHg 77%
    10:00 +22°C° 0 mm 5 m/S 745 mmHg 75%
    11:00 +23°C° 0 mm 5 m/S 745 mmHg 74%
    12:00 +23°C° 0,6 mm 5 m/S 745 mmHg 77%
    13:00 +23°C° 0,6 mm 5 m/S 745 mmHg 80%
    14:00 +22°C° 0,6 mm 4 m/S 745 mmHg 83%
    15:00 +21°C° 1,7 mm 4 m/S 744 mmHg 86%
    16:00 +21°C° 1,7 mm 4 m/S 744 mmHg 89%
    17:00 +20°C° 1,7 mm 4 m/S 744 mmHg 92%
    18:00 +19°C° 0,5 mm 4 m/S 744 mmHg 92%
    19:00 +19°C° 0,5 mm 5 m/S 744 mmHg 92%
    20:00 +17°C° 0,5 mm 5 m/S 744 mmHg 92%
    21:00 +17°C° 0,3 mm 5 m/S 744 mmHg 93%
    22:00 +17°C° 0,3 mm 5 m/S 744 mmHg 93%
    23:00 +17°C° 0,3 mm 5 m/S 743 mmHg 93%

    28 Juni, Donnerstag

    Zeit Temperatur Niederschläge Wind Luftdruck Luftfeuchtigkeit
    00:00 +17°C° 0,2 mm 5 m/S 743 mmHg 94%
    01:00 +17°C° 0,2 mm 5 m/S 743 mmHg 95%
    02:00 +17°C° 0,2 mm 5 m/S 743 mmHg 96%
    03:00 +17°C° 0,5 mm 5 m/S 742 mmHg 96%
    04:00 +19°C° 0,5 mm 5 m/S 742 mmHg 96%
    05:00 +19°C° 0,5 mm 5 m/S 742 mmHg 96%
    06:00 +20°C° 0,1 mm 5 m/S 742 mmHg 93%
    07:00 +21°C° 0,1 mm 6 m/S 742 mmHg 91%
    08:00 +23°C° 0,1 mm 6 m/S 742 mmHg 88%
    09:00 +24°C° 0,1 mm 6 m/S 742 mmHg 85%
    10:00 +26°C° 0,1 mm 7 m/S 742 mmHg 81%
    11:00 +28°C° 0,1 mm 7 m/S 742 mmHg 77%
    12:00 +28°C° 0 mm 7 m/S 742 mmHg 76%
    13:00 +29°C° 0 mm 7 m/S 742 mmHg 74%
    14:00 +30°C° 0 mm 7 m/S 742 mmHg 73%
    15:00 +29°C° 0,5 mm 7 m/S 741 mmHg 76%
    16:00 +29°C° 0,5 mm 6 m/S 741 mmHg 79%
    17:00 +28°C° 0,5 mm 6 m/S 741 mmHg 81%
    18:00 +27°C° 2,4 mm 6 m/S 741 mmHg 84%
    19:00 +26°C° 2,4 mm 5 m/S 740 mmHg 87%
    20:00 +25°C° 2,4 mm 5 m/S 740 mmHg 89%
    21:00 +23°C° 2,2 mm 5 m/S 740 mmHg 91%
    22:00 +23°C° 2,2 mm 5 m/S 740 mmHg 92%
    23:00 +22°C° 2,2 mm 5 m/S 740 mmHg 93%
    Mehr zeigen